Regional Weather Roundup
Issued by NWS

Home | Current Version | Previous Version | Text Only | Print | Product List | Glossary Off
Versions: 1 2 3 4 5 6 7 8 9 10 11 12 13 14 15 16 17 18 19 20 21 22 23 24 25 26 27 28 29 30 31 32 33 34 35 36 37 38 39 40 41 42 43 44 45 46 47 48 49 50

000
ASUS45 KBOU 021107
RWRCO

WEATHER ROUNDUP FOR COLORADO
NATIONAL WEATHER SERVICE DENVER/BOULDER CO
500 AM MDT THU OCT 02 2014

NOTE: "FAIR" INDICATES FEW OR NO CLOUDS BELOW 12000 FEET WITH NO
SIGNIFICANT WEATHER AND/OR OBSTRUCTIONS TO VISIBILITY.

COZ001>005-013-030-031-021200-
...NORTHWEST COLORADO...

CITY           SKY/WX    TMP DP  RH WIND       PRES   REMARKS
CRAIG          PTCLDY    32  29  88 CALM      30.25R
HAYDEN         PTCLDY    34  30  86 W5        30.24R WCI  30
MEEKER         CLOUDY    34  33  96 CALM      30.26R FOG
MOUNT WERNER   NOT AVBL
STEAMBOAT SPGS CLOUDY    35  33  93 CALM      30.23S
WALDEN         CLEAR     30  28  93 E3        30.20R
$$

COZ006>008-011-021200-
...WEST CENTRAL VALLEYS...

CITY           SKY/WX    TMP DP  RH WIND       PRES   REMARKS
GRAND JUNCTION CLEAR     38  35  89 NW3       30.23R
MONTROSE       PTCLDY    39  37  92 S7        30.26R
EAGLE          CLOUDY    34  34 100 E5        30.27R WCI  30
RIFLE          PTCLDY    38  36  92 NW3       30.24R
DELTA          LGT RAIN  40  38  91 NE5       30.24R
NUCLA          PTCLDY    37  32  81 CALM      30.27R
$$

COZ017>023-064>068-021200-
...SOUTHWEST COLORADO...

CITY           SKY/WX    TMP DP  RH WIND       PRES   REMARKS
DURANGO        CLEAR     42  24  49 VRB7      30.13R
CORTEZ         CLEAR     42  32  67 NW9       30.19R
PAGOSA SPRINGS CLEAR     33  29  83 N5        30.16R WCI  29
TELLURIDE      PTCLDY   N/A N/A N/A SW6       30.25R
WOLF CREEK PAS CLEAR     21  18  86 N22G28    30.24R WCI   5
$$

COZ009-010-012-014-032>034-037-058>063-021200-
...CENTRAL COLORADO...

CITY           SKY/WX    TMP DP  RH WIND       PRES   REMARKS
ASPEN          MIX PCPN  34  31  88 VRB6      30.25R WCI  29
BUENA VISTA    PTCLDY    34  25  69 W7        30.18R WCI  28
COPPER MTN     CLOUDY    23  18  80 W25G37    30.24R WCI   7
BERTHOUD PASS  CLOUDY    16  14  93 NW26G36   30.23R WCI  -3
COTTONWOOD PAS PTCLDY    32  19  59 W20G28    30.20R WCI  20
GUNNISON       CLEAR     34  27  75 SW5       30.24R WCI  30
KREMMLING      CLOUDY    36  32  87 CALM      30.24R
LEADVILLE      LGT SNOW  25  22  88 NW9       30.22R FOG     WCI  15
MONARCH PASS   CLOUDY    21  19  93 MISG      30.34R
SALIDA         PTCLDY    40  26  57 NW7       30.24R
SUNLIGHT       CLOUDY   N/A N/A N/A N7        30.30R FOG
WILKERSON PASS NOT AVBL
$$

COZ069>075-021200-
...SAN LUIS VALLEY/SANGRE DE CRISTO MOUNTAINS...

CITY           SKY/WX    TMP DP  RH WIND       PRES   REMARKS
ALAMOSA        LGT RAIN  40  27  59 N10       30.14R
LA VETA PASS   NOT AVBL
SAGUACHE       PTCLDY    36  28  75 N13       30.17R
$$

COZ035-036-038>040-021200-
...NORTHERN COLORADO FRONT RANGE...

CITY           SKY/WX    TMP DP  RH WIND       PRES   REMARKS
DENVER INTL AP PTCLDY    40  38  93 SW6       30.11R
DMNS CITY PARK   N/A     40  38  94 S2        30.11S
AURORA         PTCLDY    38  38  99 SW5       30.13R
FRONT RANGE AP NOT AVBL
ERIE MUNI ARPT CLEAR     38  38  99 CALM      30.11R
BOULDER MUN AP CLEAR     37  37 100 CALM      30.11R
CENTENNIAL     PTCLDY    38  36  92 SW6       30.11R
BROOMFIELD     CLEAR     41  37  87 W3        30.12R
FORT COLLINS   CLEAR     43  37  81 SW5       30.11S
LONGMONT       CLEAR     40  38  93 CALM      30.13R
$$

COZ041-046-047-076>085-087-088-021200-
...PIKES PEAK/PALMER DIVIDE AND SOUTHERN FOOTHILLS...

CITY           SKY/WX    TMP DP  RH WIND       PRES   REMARKS
COLO. SPRINGS  MOCLDY    43  34  70 N15       30.11R
A. F. ACADEMY  MOCLDY    37  33  85 NW5       30.11R
ELLICOTT       NOT AVBL
FALCON         MOCLDY    38  33  84 NW12G20   30.11R
FORT CARSON    MOCLDY    42  34  73 N9        30.09R
LIMON          MOCLDY    40  38  93 NW15      30.08R
MONUMENT HILL  MOCLDY    32  32 100 NW7       30.12R WCI  26
TRINIDAD       CLOUDY    43  35  73 NW7       30.12R
$$

COZ042>045-048>051-090-091-021200-
...NORTHEAST COLORADO...

CITY           SKY/WX    TMP DP  RH WIND       PRES   REMARKS
GREELEY ARPT   CLEAR     39  34  81 N5        30.12R
AKRON          MOCLDY    41  41 100 NW10      30.07R
BURLINGTON     MOCLDY    45  42  89 N14       30.03R
WRAY           MOCLDY    46  46 100 NW9       30.04R
STERLING       MOCLDY    45  43  93 N8        30.07R
HOLYOKE        MOCLDY    46  43  87 NW9       30.04R
FORT MORGAN    MOCLDY    40  38  93 NW7       30.10R
$$

COZ086-089-092>099-021200-
...SOUTHEAST COLORADO...

CITY           SKY/WX    TMP DP  RH WIND       PRES   REMARKS
PUEBLO         CLOUDY    49  34  56 N15G24    30.07R
LA JUNTA       CLOUDY    49  39  68 W6        30.06R
LAMAR          PTCLDY    48  41  76 CALM      30.00R
SPRINGFIELD      N/A     47  41  80 NW18G26   30.03R
$$


USA.gov is the U.S. government's official web portal to all federal, state and local government web resources and services.